Regional Weather Roundup
Issued by NWS

Home | Current Version | Previous Version | Text Only | Print | Product List | Glossary Off
Versions: 1 2 3 4 5 6 7 8 9 10 11 12 13 14 15 16 17 18 19 20 21 22 23 24 25 26 27 28 29 30 31 32 33 34 35 36 37 38 39 40 41 42 43 44 45 46 47 48 49 50

257
ASUS45 KBOU 240610
RWRCO

WEATHER ROUNDUP FOR COLORADO
NATIONAL WEATHER SERVICE PUEBLO CO
1100 PM MST FRI FEB 23 2018

NOTE: "FAIR" INDICATES FEW OR NO CLOUDS BELOW 12000 FEET WITH NO
SIGNIFICANT WEATHER AND/OR OBSTRUCTIONS TO VISIBILITY.

COZ001>005-013-030-031-240700-
...NORTHWEST COLORADO...

CITY           SKY/WX    TMP DP  RH WIND       PRES   REMARKS
CRAIG          CLOUDY    17  10  74 SW9       29.94S WCI   6
HAYDEN         LGT SNOW  17  14  88 W9        29.93S FOG     WCI   6
MEEKER         FLURRIES  22  18  85 VRB3      29.91F
RABBIT EARS PA NOT AVBL
STEAMBOAT SPGS CLOUDY    19  17  92 SW3       29.89S
WALDEN         MOCLDY    14   9  79 SE6       29.81F WCI   5
$$

COZ006>008-011-240700-
...WEST CENTRAL VALLEYS...

CITY           SKY/WX    TMP DP  RH WIND       PRES   REMARKS
GRAND JUNCTION MOCLDY    28  25  88 W3        29.97S
MONTROSE       SNOW      22  22 100 NW3       29.98S VSB 1/2
EAGLE          CLOUDY    26  18  71 CALM      29.90S
RIFLE          FLURRIES  26  23  88 W5        29.94S WCI  20
DELTA          NOT AVBL
NUCLA          CLOUDY    23  21  93 SE5       29.99F WCI  17
$$

COZ017>023-064>068-240700-
...SOUTHWEST COLORADO...

CITY           SKY/WX    TMP DP  RH WIND       PRES   REMARKS
DURANGO        MOCLDY    24  19  81 W18       29.90R WCI  10
CORTEZ         FLURRIES  23  20  88 NE3       29.98R
PAGOSA SPRINGS MOCLDY    22  22  97 CALM      29.88F
TELLURIDE      FLURRIES  14  13  93 W10       29.87S WCI   2
WOLF CREEK PAS CLOUDY     5   3  92 SW21G32   29.78F WCI -16
$$

COZ009-010-012-014-032>034-037-058>063-240700-
...CENTRAL COLORADO...

CITY           SKY/WX    TMP DP  RH WIND       PRES   REMARKS
ASPEN          LGT SNOW  19  16  88 N6        29.83F VSB 3/4 WCI  11
BUENA VISTA    CLOUDY    24   7  49 W12G21    29.80R WCI  13
COPPER MTN     LGT SNOW   9   3  78 S5        29.71F WCI   0
BERTHOUD PASS  SNOW       1  -9  60 NW9       29.68F VSB<1/4 WCI -14
COTTONWOOD PAS LGT SNOW  21  10  63 W18G30    29.75F WCI   6
GUNNISON       CLOUDY    21  12  68 W8        29.85F WCI  11
KREMMLING      CLOUDY    27  18  69 CALM      29.86S
LEADVILLE      CLOUDY     9   5  84 NE6       29.75F WCI  -1
MONARCH PASS   LGT SNOW   5   1  85 W21       29.82F VSB 1   WCI -16
SALIDA         MOCLDY    26  13  57 SW17G32   29.88S WCI  13
SUNLIGHT       SNOW       7   3  85 W9G17     29.82S VSB 1/2 WCI  -7
WILKERSON PASS CLOUDY    10   3  72 SW8       29.75F WCI  -1
$$

COZ069>075-240700-
...SAN LUIS VALLEY/SANGRE DE CRISTO MOUNTAINS...

CITY           SKY/WX    TMP DP  RH WIND       PRES   REMARKS
ALAMOSA        MOCLDY    22   9  57 W3        29.81F
DEL NORTE      LGT SNOW  23  18  81 W12       29.85R WCI  11
LA VETA PASS   LGT SNOW  19  14  79 S15G30    29.87F WCI   5
SAGUACHE       CLOUDY    21  14  73 N9G16     29.83S WCI  11
$$

COZ035-036-038>040-240700-
...NORTHERN COLORADO FRONT RANGE...

CITY           SKY/WX    TMP DP  RH WIND       PRES   REMARKS
DENVER INTL AP CLOUDY    25  21  85 NE3       29.86S FOG
DMNS CITY PARK NOT AVBL
AURORA         CLOUDY    24  24  99 N7        29.85F FOG     WCI  16
FRONT RANGE AP CLOUDY    26  25  94 CALM      29.87S FOG
ERIE MUNI ARPT CLOUDY    26  24  93 N6        29.92F FOG     WCI  19
BOULDER MUN AP CLOUDY    27  23  86 N6        29.86F WCI  20
CENTENNIAL     CLOUDY    24  20  84 SW5       29.83F FOG     WCI  18
BROOMFIELD     NOT AVBL
LOVELAND       CLOUDY    26  24  92 NE8       29.88F WCI  18
LONGMONT       CLOUDY    28  25  86 N6        29.89F WCI  22
$$

COZ041-046-047-076>085-087-088-240700-
...PIKES PEAK/PALMER DIVIDE AND SOUTHERN FOOTHILLS...

CITY           SKY/WX    TMP DP  RH WIND       PRES   REMARKS
COLO. SPRINGS  LGT SNOW  21  19  92 CALM      29.85F FOG
A. F. ACADEMY  CLOUDY    21  19  94 CALM      29.81F
SCHRIEVER AFB  NOT AVBL
CHEYENNE MTN   NOT AVBL
ELLICOTT       SNOW     N/A N/A N/A SE3       29.84F
FALCON         LGT SNOW  20  19  96 CALM      29.83F
FORT CARSON    PTCLDY    21  19  91 CALM      29.85F
LIMON          CLOUDY    21  21 100 S5        29.87F FOG     WCI  15
MONUMENT HILL  CLOUDY    21  19  93 NW3       29.83F FOG
CANON CITY     CLOUDY    27  25  93 MISG      29.87F
WALSENBURG     CLOUDY    25  23  93 E6        29.84F WCI  18
TRINIDAD       FOG       24  23  96 N6        29.87F VSB 1/2 WCI  17
$$

COZ042>045-048>051-090-091-240700-
...NORTHEAST COLORADO...

CITY           SKY/WX    TMP DP  RH WIND       PRES   REMARKS
GREELEY ARPT   NOT AVBL
AKRON          CLOUDY    24  23  96 SE10      29.90F WCI  14
BURLINGTON     CLOUDY    22  21  96 SE7       29.96F WCI  13
WRAY           CLOUDY    28  23  80 SE8       30.00F WCI  20
YUMA           NOT AVBL
STERLING       CLOUDY    27  23  86 E5        29.95F WCI  21
HOLYOKE        CLOUDY    25  21  86 E7        30.01F WCI  17
FORT MORGAN    CLOUDY    27  21  80 E12       29.91F WCI  16
$$

COZ086-089-092>099-240700-
...SOUTHEAST COLORADO...

CITY           SKY/WX    TMP DP  RH WIND       PRES   REMARKS
PUEBLO         LGT SNOW  27  25  92 E7        29.89F FOG     WCI  19
LA JUNTA       CLOUDY    27  25  92 E10       29.92S FOG     WCI  17
LAMAR          FRZ RAIN  27  25  92 E9        29.94F FOG     WCI  18
SPRINGFIELD      N/A     25  25 100 E12       29.89S WCI  14
$$





USA.gov is the U.S. government's official web portal to all federal, state and local government web resources and services.